This is the latest recevied weather packets stored in our database for station/object KD9CCP. If no packets are shown the sender has not sent any weather packets the latest 10 day(s).
| Time | Temp. | Humidity | Pressure | Rain* | Wind** | Luminosity | Snow |
|---|---|---|---|---|---|---|---|
| 1777786837 | 8.33° C | 71% | 1010.4 hPa | 0 mm | - | 0 W/m² | - |
| 1777786535 | 8.33° C | 66% | 1010.7 hPa | 0 mm | - | 0 W/m² | - |
| 1777786232 | 8.33° C | 64% | 1010.6 hPa | 0 mm | - | 0 W/m² | - |
| 1777785929 | 8.33° C | 73% | 1010.4 hPa | 0 mm | - | 0 W/m² | - |
| 1777785625 | 7.78° C | 68% | 1010.5 hPa | 0 mm | - | 0 W/m² | - |
| 1777785321 | 7.78° C | 72% | 1010.7 hPa | 0 mm | - | 0 W/m² | - |
| 1777785019 | 7.78° C | 70% | 1010.6 hPa | 0 mm | - | 0 W/m² | - |
| 1777784714 | 7.78° C | 71% | 1010.6 hPa | 0 mm | - | 0 W/m² | - |
| 1777784412 | 7.78° C | 70% | 1010.7 hPa | 0 mm | - | 0 W/m² | - |
| 1777784109 | 7.78° C | 69% | 1010.7 hPa | 0 mm | - | 0 W/m² | - |
| 1777783806 | 7.78° C | 70% | 1010.9 hPa | 0 mm | - | 0 W/m² | - |
| 1777783503 | 7.78° C | 69% | 1010.7 hPa | 0 mm | - | 0 W/m² | - |
| 1777783201 | 7.78° C | 70% | 1010.9 hPa | 0 mm | - | 0 W/m² | - |
| 1777782896 | 7.78° C | 72% | 1011.1 hPa | 0 mm | - | 0 W/m² | - |
| 1777782593 | 7.22° C | 72% | 1011 hPa | 0 mm | - | 0 W/m² | - |
| 1777782290 | 7.22° C | 73% | 1011.2 hPa | 0 mm | - | 0 W/m² | - |
| 1777781987 | 7.78° C | 71% | 1011.2 hPa | 0 mm | - | 0 W/m² | - |
| 1777781683 | 7.78° C | 69% | 1011.2 hPa | 0 mm | - | 0 W/m² | - |
| 1777781381 | 7.22° C | 70% | 1011.3 hPa | 0 mm | - | 0 W/m² | - |
| 1777781078 | 7.22° C | 71% | 1011.4 hPa | 0 mm | - | 0 W/m² | - |
| 1777780775 | 7.22° C | 72% | 1011.5 hPa | 0 mm | - | 0 W/m² | - |
| 1777780472 | 7.22° C | 71% | 1011.5 hPa | 0 mm | - | 0 W/m² | - |
| 1777780170 | 6.67° C | 65% | 1011.4 hPa | 0 mm | - | 0 W/m² | - |
| 1777779867 | 6.67° C | 70% | 1011.3 hPa | 0 mm | - | 0 W/m² | - |
| 1777779564 | 6.67° C | 69% | 1011.6 hPa | 0 mm | - | 0 W/m² | - |
* Rain latest hour (hover to see other rain measurements)
** Current wind speed in m/s (hover to see current wind gust speed)